Theta_e
319 318 317 316 317 316 317 318 313 308 304 302 300 298 297 297 296 295 294 293 293 293 294 294 295 295 295 294 294 294 294 295 295 295 296 298 301 307 314 316 317 317 318 319 320 320 320 319 319 320 320 319 317 317 316 315 315 314 313 313 312 313 311 311 311 311 310 310 310 310 310 311 311 310 311 311 311 311 311 310 310 312 312 311 310
319 318 317 318 318 318 318 314 310 306 302 301 300 299 297 296 296 295 294 293 293 294 294 293 294 293 293 293 293 292 292 292 291 292 292 294 297 301 309 313 314 315 316 316 317 317 317 318 319 318 318 317 316 316 315 314 313 313 313 312 312 312 311 311 310 310 309 309 309 309 309 310 309 310 311 311 311 311 311 310 311 311 311 311 311
320 319 320 321 319 319 316 312 309 304 302 301 300 297 297 298 296 295 294 294 293 293 293 292 292 292 292 291 291 292 291 291 290 290 290 290 292 295 299 308 311 312 312 313 314 315 316 316 316 317 317 316 316 315 315 313 312 312 312 311 311 312 311 310 310 310 309 309 309 309 309 309 309 310 310 310 310 310 310 309 309 310 310 310 310
320 320 323 321 320 317 313 310 305 303 301 299 299 300 298 297 296 295 295 294 293 292 292 292 292 292 292 292 291 290 290 290 289 289 288 288 288 290 292 296 306 309 310 311 312 313 313 313 313 314 314 315 315 315 314 313 312 311 311 311 311 311 309 309 310 309 309 309 309 309 308 308 309 309 309 309 309 309 308 308 310 309 309 310 310
322 323 322 321 318 314 311 307 304 302 300 299 298 297 296 295 295 295 295 293 293 291 292 291 290 290 289 289 289 289 289 288 288 288 288 287 286 287 288 290 292 301 305 307 309 311 311 312 312 311 313 313 314 313 313 312 312 311 311 312 312 311 311 310 309 309 309 309 309 309 308 308 308 308 308 308 308 309 309 309 308 308 309 310 308
324 323 322 319 316 313 308 305 303 301 299 299 297 296 295 295 294 294 294 292 291 290 290 289 290 290 289 289 288 288 288 288 287 287 287 287 286 286 286 286 287 288 292 302 305 307 309 310 310 310 311 311 311 312 312 311 312 312 312 312 311 311 310 310 309 309 309 309 308 308 308 308 308 308 308 308 308 308 308 308 309 308 308 308 308
324 322 319 317 314 311 308 304 302 301 299 298 296 295 295 295 294 293 292 291 290 290 289 289 289 288 288 288 287 287 287 287 287 287 287 287 287 286 286 286 286 286 287 287 296 302 305 307 308 308 309 310 310 310 311 311 312 312 312 311 311 310 309 309 309 309 309 308 307 307 307 307 307 307 307 308 307 308 308 307 306 308 308 309 309
323 321 318 316 313 310 307 304 302 301 300 298 296 295 294 294 294 293 291 291 290 289 289 288 288 287 287 287 287 288 287 287 287 286 286 286 286 286 286 286 286 287 288 285 286 294 299 302 304 306 307 307 308 309 310 311 311 311 310 310 310 310 309 309 309 308 308 307 306 306 306 306 306 307 306 307 306 307 307 307 307 307 307 308 308
322 320 318 315 312 309 305 303 302 300 299 298 296 295 294 294 293 293 292 290 290 288 288 288 287 287 286 287 287 287 286 286 286 286 287 286 285 285 286 286 287 289 285 284 284 284 292 296 298 301 302 304 306 307 307 308 309 310 310 310 310 309 308 307 307 307 306 306 306 306 306 305 306 306 306 306 306 306 306 306 307 308 307 307 307
321 319 317 315 312 308 305 303 302 300 298 297 295 295 295 294 293 293 292 291 289 288 287 287 288 287 286 286 286 286 286 287 287 288 285 285 285 285 285 285 285 284 284 284 283 283 283 287 291 294 297 300 303 305 305 306 307 308 309 309 309 309 307 306 306 306 305 305 305 305 305 305 305 305 306 306 306 305 306 306 306 307 306 307 307
319 318 316 313 310 308 305 303 302 300 297 296 295 295 294 294 293 292 292 290 289 288 287 288 287 287 287 286 287 286 287 287 286 285 285 286 287 287 286 284 285 284 284 284 283 283 283 282 282 282 286 295 298 300 301 303 304 305 306 308 308 308 307 306 305 305 305 305 304 305 304 305 305 305 305 305 305 305 305 305 306 306 306 306 306
317 317 314 312 309 307 305 304 302 299 297 295 294 294 293 293 292 291 290 290 289 288 288 287 287 286 287 286 286 286 285 285 284 284 285 284 284 284 284 284 284 284 284 284 283 283 282 282 284 282 282 287 292 294 297 299 300 303 304 307 307 307 307 305 305 304 304 304 304 304 304 304 304 305 305 305 305 305 305 305 305 306 306 305 305
314 314 313 310 309 307 305 303 301 299 297 295 295 294 294 293 292 291 290 288 287 287 287 287 285 284 285 284 284 285 287 284 284 284 284 284 284 284 284 284 284 284 283 283 283 282 282 282 281 281 281 280 283 289 291 293 297 300 302 304 306 306 307 305 304 304 303 303 303 303 303 303 304 304 304 304 304 305 304 305 305 305 305 305 305
313 313 311 311 309 307 305 303 302 300 298 297 298 297 296 293 292 290 290 288 286 287 287 286 283 281 281 282 282 283 285 284 284 284 285 285 285 285 285 284 283 283 283 282 282 282 281 281 281 281 280 280 281 280 283 285 289 297 300 302 304 305 306 305 304 303 303 303 303 303 303 303 303 303 304 304 304 304 304 304 305 305 305 305 305
312 311 311 310 309 307 305 304 302 300 298 298 298 297 296 293 292 290 288 287 287 287 286 285 282 282 283 280 278 278 284 282 283 284 285 284 285 285 284 283 283 283 283 282 282 281 281 281 280 280 280 280 280 279 281 285 287 292 296 298 299 302 304 304 304 303 302 302 302 302 302 302 302 302 303 304 304 304 304 304 304 304 305 305 305
310 311 311 310 309 307 305 303 301 300 299 297 296 295 294 292 291 290 289 286 285 285 286 286 285 283 279 279 278 278 276 279 280 283 284 283 284 284 284 283 283 283 282 282 282 281 281 281 280 279 279 279 279 279 281 281 285 288 291 294 296 298 300 302 302 302 301 302 302 301 302 301 301 302 303 303 303 303 303 304 304 304 304 304 304
310 310 309 309 308 307 304 303 301 300 300 298 296 295 294 293 291 289 288 286 285 284 285 287 285 285 284 280 279 279 277 278 280 281 282 281 282 283 284 283 283 283 282 281 281 281 281 280 279 279 279 279 279 279 279 280 280 284 285 292 295 295 296 300 301 301 301 302 301 301 301 301 300 302 302 302 303 303 303 303 303 303 303 303 303
308 309 309 308 308 307 305 303 301 300 300 298 297 295 293 292 290 289 288 287 286 285 284 288 285 286 288 284 283 280 280 280 279 276 282 281 281 282 282 282 282 282 281 281 281 281 282 280 279 279 279 278 279 279 279 280 283 280 283 290 295 295 295 296 299 300 300 301 301 301 301 301 301 301 301 301 301 302 303 303 302 303 302 302 302
306 309 308 308 308 307 305 304 303 301 300 299 297 295 293 292 291 289 288 288 286 285 286 288 285 286 288 288 286 284 284 281 278 278 277 280 280 280 281 281 281 281 281 280 280 280 280 280 278 278 278 278 278 278 278 279 283 285 290 293 295 295 294 295 295 296 298 299 300 300 301 300 300 300 300 301 301 301 302 302 302 302 302 302 302
303 307 308 308 307 307 306 304 303 302 301 300 298 296 294 293 291 290 288 288 287 287 288 288 285 285 286 285 284 283 283 281 282 280 278 278 278 280 281 280 281 280 281 280 280 279 279 278 278 278 278 278 278 278 278 278 277 278 283 292 294 294 294 294 294 294 295 296 298 299 299 300 300 299 300 300 301 301 301 301 301 302 302 301 301
301 304 307 308 306 306 306 304 303 303 301 301 298 296 294 293 291 289 288 288 288 288 289 289 286 286 286 282 283 282 282 280 281 279 278 277 277 278 278 280 280 280 280 280 280 280 280 279 279 278 280 279 277 278 278 277 278 278 286 289 293 294 294 294 294 294 293 294 295 296 297 298 299 299 299 299 300 300 300 300 301 301 301 301 300
299 301 304 307 306 306 306 305 304 303 300 300 298 296 295 294 292 290 290 289 288 288 290 289 289 286 286 285 283 282 281 281 281 278 279 278 278 278 278 278 277 278 279 279 279 279 279 280 280 278 277 276 277 277 277 277 278 280 283 287 290 292 292 292 293 293 293 293 293 293 295 296 297 298 298 299 300 300 300 300 300 301 300 300 300
298 299 301 304 306 306 306 305 304 302 300 300 298 297 296 294 293 291 290 290 289 288 289 287 288 285 285 285 285 285 284 281 282 280 278 277 277 277 278 279 277 277 279 279 280 279 279 278 278 277 277 277 277 278 277 278 283 284 285 285 288 289 291 292 292 293 293 293 293 292 293 293 294 295 297 298 299 299 299 300 300 300 300 299 300
296 297 298 301 303 304 304 304 303 302 301 300 299 298 297 295 293 292 291 290 289 289 288 287 286 285 284 284 285 285 283 283 283 284 282 279 280 278 278 277 278 277 279 279 279 278 278 278 278 278 277 277 277 278 279 278 279 284 282 283 286 287 289 290 291 292 292 292 292 292 292 292 293 294 294 297 297 299 299 299 299 300 299 299 299
296 296 297 298 301 302 302 302 301 301 301 300 299 298 297 295 294 292 291 290 289 289 288 287 286 285 284 282 283 283 282 281 282 282 281 281 280 278 278 278 276 277 278 278 278 278 278 278 278 277 277 278 279 278 277 277 278 283 284 281 284 285 286 287 289 291 292 291 291 291 291 292 292 294 295 295 296 297 298 298 298 299 299 299 299
296 297 298 298 299 301 300 301 300 300 299 299 298 297 296 295 293 291 290 289 288 288 287 285 285 284 283 282 281 281 280 281 281 281 281 281 279 280 279 277 276 277 277 277 277 278 278 278 278 278 277 277 277 277 277 277 277 283 283 280 280 283 284 286 288 291 291 291 291 290 290 290 292 293 293 294 294 295 296 297 297 298 298 298 298
296 297 296 297 297 297 297 297 297 297 297 297 297 296 295 294 292 290 288 286 287 286 285 284 283 281 281 281 281 281 280 281 280 282 282 283 282 281 280 278 276 276 277 277 276 277 276 277 278 278 278 278 277 276 276 276 280 283 282 277 276 282 283 286 289 290 290 290 290 290 290 290 291 292 292 291 292 293 294 295 296 296 296 296 296
295 294 295 295 295 295 295 295 295 295 295 295 294 294 292 292 289 287 286 286 285 284 283 283 282 281 281 280 280 280 280 280 280 281 280 281 282 281 281 280 278 274 275 276 276 277 277 278 277 277 277 278 278 277 281 281 279 283 282 277 276 277 282 285 288 289 289 289 289 289 289 289 290 290 290 290 290 290 290 291 292 292 292 293 293
294 294 294 294 294 294 293 293 292 293 293 293 292 291 290 289 287 286 285 283 284 283 282 282 281 280 280 280 280 279 279 279 279 280 280 280 280 280 280 280 280 277 274 274 276 276 277 277 277 278 278 277 278 278 279 275 280 281 277 277 276 275 281 285 286 288 288 288 288 288 288 289 289 289 290 290 290 290 291 291 291 291 292 292 292
293 293 293 293 293 291 291 290 290 291 291 289 289 288 287 287 286 286 285 283 283 282 282 281 280 280 279 279 279 279 279 279 279 279 279 279 279 279 278 278 279 278 275 275 275 277 276 277 276 277 277 277 277 278 277 277 282 281 277 276 276 276 282 283 284 285 286 287 287 287 288 288 288 289 289 289 289 290 290 290 290 291 291 291 292
292 292 291 290 290 290 290 289 289 289 289 288 287 286 286 285 284 284 283 283 282 281 281 281 280 280 279 279 278 278 278 278 278 278 278 279 279 278 277 277 278 278 277 275 273 274 277 278 277 276 277 277 277 277 278 277 280 281 277 276 276 281 282 282 282 283 284 285 285 286 287 288 288 289 289 288 289 289 290 290 289 290 290 290 290
292 292 291 290 290 289 289 289 288 288 288 286 285 285 285 285 284 283 282 282 282 281 280 280 280 280 279 279 278 278 278 278 278 278 278 278 279 279 278 279 278 278 278 276 275 275 277 277 277 276 277 277 277 276 276 277 279 283 278 277 277 282 279 277 281 282 283 284 285 286 286 287 288 288 288 288 288 288 288 288 289 289 289 289 289
290 290 290 289 289 289 288 288 288 287 287 285 284 284 284 283 283 283 282 282 282 281 281 280 280 279 279 279 278 278 278 278 277 278 277 278 278 278 278 278 278 278 279 277 276 274 275 276 276 276 276 276 275 276 275 276 276 277 281 277 277 277 276 277 277 280 282 283 284 285 285 286 287 287 287 286 286 287 287 288 289 288 287 288 288
289 289 289 289 289 288 288 288 287 287 287 285 283 284 284 283 282 282 282 281 281 280 280 279 279 279 279 278 278 277 277 278 278 277 277 277 277 277 277 278 278 278 278 277 276 276 275 275 275 276 275 276 274 275 275 275 275 276 276 276 277 276 276 276 276 277 281 282 283 284 285 286 286 286 286 285 286 286 287 287 287 286 286 287 286
288 289 289 288 288 287 287 287 287 286 285 284 283 283 283 283 282 282 282 281 281 280 280 279 278 278 278 278 277 277 278 277 277 277 277 277 277 277 277 277 278 278 277 276 276 275 274 274 274 275 275 275 275 274 275 275 276 276 275 275 276 278 278 277 276 276 280 282 283 284 284 284 284 284 285 285 285 285 285 285 286 285 285 285 285
287 288 288 287 287 287 286 286 286 285 284 283 282 283 283 283 282 282 281 280 280 280 280 279 278 278 278 278 277 278 277 277 276 276 276 276 276 276 277 277 277 277 277 276 276 275 275 274 274 275 274 274 274 274 275 276 275 275 276 276 276 276 276 277 275 275 278 282 282 282 282 283 283 283 283 283 284 284 284 284 284 284 284 283 283
287 286 286 286 286 286 286 285 285 285 284 283 282 282 282 282 282 281 280 280 280 280 280 280 280 279 278 278 278 277 277 276 276 276 276 276 276 276 277 277 277 277 277 277 276 275 274 274 273 273 274 273 274 274 275 275 274 274 275 275 275 275 275 275 276 277 280 280 280 280 280 281 282 282 282 283 283 283 283 283 283 283 282 282 281
287 286 285 285 285 285 285 285 285 285 285 283 282 282 282 282 281 281 280 280 280 280 280 279 279 278 278 277 277 278 277 277 277 277 277 276 276 277 277 277 276 276 276 276 276 275 274 273 273 273 274 274 273 274 274 275 275 274 274 274 274 274 274 273 274 276 276 275 274 275 278 279 279 281 281 281 282 282 282 282 282 281 281 280 280
287 286 285 284 285 285 284 284 284 284 284 283 282 281 281 281 281 280 279 279 278 278 278 278 278 278 278 278 278 278 278 278 278 277 277 277 277 277 277 277 276 276 276 276 275 274 274 273 273 274 273 274 274 272 274 275 274 274 273 273 273 274 272 272 273 274 275 275 276 278 277 277 278 278 279 280 281 280 280 280 280 280 279 279 280
286 286 285 285 284 284 284 284 284 284 283 282 282 281 281 281 281 280 279 278 277 277 277 278 278 278 278 279 279 279 279 279 278 278 278 277 277 277 277 277 276 276 275 275 274 274 274 274 274 273 273 273 273 274 274 274 273 273 274 273 272 271 272 272 272 272 273 274 272 272 275 275 275 276 278 278 278 278 278 278 278 278 278 278 280
287 286 286 285 284 284 283 283 282 282 282 282 282 281 281 280 280 279 278 278 278 278 278 278 278 278 278 278 278 279 279 280 281 281 280 280 278 277 276 277 276 276 276 275 275 274 274 274 273 274 273 273 273 273 272 273 273 273 273 272 271 271 271 271 271 273 273 272 272 272 271 272 272 272 272 271 272 275 275 276 276 276 277 279 281
287 286 285 285 284 283 283 282 282 282 282 282 283 285 284 281 280 280 279 278 278 278 278 278 277 278 278 278 279 281 281 281 282 282 283 282 282 279 278 277 277 276 275 274 274 274 274 273 273 273 272 272 272 273 273 273 274 273 272 271 271 271 270 270 271 271 272 271 271 270 271 273 272 271 271 270 272 273 272 272 272 274 277 280 281
286 285 285 284 284 283 283 282 282 282 282 282 284 287 287 286 281 280 279 278 278 278 278 278 277 277 278 278 278 280 281 281 281 283 283 283 283 282 282 281 280 277 275 275 274 274 273 273 273 273 273 273 273 274 274 274 273 273 273 272 272 270 269 267 267 270 273 270 270 270 270 272 272 270 270 271 271 271 272 272 276 277 278 280 281
286 285 284 284 284 283 283 283 282 282 282 284 287 288 288 287 284 280 279 279 279 278 278 278 278 278 277 278 278 279 279 279 280 282 283 284 284 283 283 282 282 282 281 277 275 274 274 273 272 273 273 273 273 274 274 273 273 272 272 271 270 270 269 268 268 267 270 272 269 269 269 271 270 270 269 270 271 271 271 274 277 278 279 280 280
286 284 284 284 284 283 283 282 282 282 282 285 288 288 289 288 286 283 280 279 279 279 278 278 278 278 278 277 277 278 278 281 281 280 281 282 284 284 283 283 283 283 283 283 282 277 276 274 274 273 274 274 273 274 274 273 275 272 271 270 270 269 269 268 268 268 270 271 270 269 268 269 269 269 268 270 270 270 271 273 275 277 279 279 279
285 285 284 284 284 283 283 282 282 282 281 284 288 287 288 287 287 284 279 279 279 279 279 278 278 278 278 277 277 277 278 279 278 279 280 280 281 281 281 280 280 281 283 283 283 282 279 276 275 274 275 275 274 274 274 277 274 271 269 269 267 268 267 269 269 270 270 272 269 268 266 268 268 268 268 268 270 270 270 272 276 277 278 278 278
285 285 284 284 283 284 283 282 282 281 281 285 287 288 288 288 287 285 279 279 279 279 278 278 278 278 278 278 277 277 277 278 278 278 278 278 279 279 279 279 279 278 279 280 280 280 279 277 276 275 275 275 275 275 274 275 275 273 272 271 270 269 268 269 268 269 269 271 270 268 263 268 269 267 268 268 268 268 269 272 275 276 276 277 277
286 286 285 285 284 284 283 282 282 281 282 286 287 288 288 289 288 282 279 279 278 278 278 278 278 278 278 278 277 277 277 277 280 281 280 278 277 277 277 277 277 277 277 279 281 282 280 278 276 275 275 275 278 275 276 275 274 272 271 269 268 268 268 268 268 266 265 268 270 268 263 265 268 267 267 268 268 267 268 268 273 275 275 275 276
285 285 285 285 284 284 283 282 282 282 281 284 287 287 288 289 287 281 280 279 279 278 278 278 278 278 278 278 278 277 277 277 280 283 282 280 276 276 275 275 275 275 276 277 281 282 283 282 282 281 281 281 281 282 282 282 280 276 272 271 270 270 269 268 269 266 266 268 269 269 265 264 266 266 265 267 267 267 267 267 268 272 273 274 275
285 285 285 285 284 284 283 282 282 282 282 282 286 287 288 289 285 281 280 279 279 278 278 278 278 278 278 279 279 278 278 278 281 284 283 280 276 275 275 274 273 273 274 276 276 278 282 282 282 283 283 283 283 283 284 284 284 281 273 271 272 271 269 269 267 268 267 268 267 268 261 262 262 262 263 266 266 263 266 266 267 268 271 272 272
285 285 285 284 283 283 283 283 283 282 282 282 285 287 288 288 285 281 280 279 278 278 277 277 278 278 278 280 280 280 279 279 282 284 284 281 276 275 275 274 273 273 274 275 274 274 273 273 273 274 274 276 276 274 275 280 281 280 275 275 273 271 269 269 268 266 266 263 266 267 262 262 263 264 263 260 261 263 264 265 266 265 267 267 268
Wind_Speed
9 7 8 8 7 7 6 7 7 6 7 7 7 7 7 7 8 7 6 6 6 6 7 8 7 7 8 9 8 8 8 8 9 9 9 9 9 14 19 20 22 19 20 21 21 21 21 21 21 22 23 24 23 24 23 23 24 24 24 24 24 24 23 22 23 23 23 23 23 23 23 22 23 23 22 23 22 22 22 23 23 23 22 23 23
9 8 8 9 8 6 6 8 8 7 8 8 6 6 7 7 8 8 8 7 7 5 7 8 8 7 7 8 8 8 8 9 9 8 8 8 9 12 20 19 21 22 21 20 19 19 19 19 21 21 22 22 22 22 22 22 23 23 23 23 22 22 22 22 22 22 22 22 22 23 23 22 23 23 23 23 22 22 22 22 22 22 22 23 23
9 10 8 8 8 7 6 6 7 7 8 9 7 6 6 7 7 7 8 9 7 6 7 9 8 7 7 8 7 7 7 7 8 8 9 8 8 9 13 19 20 19 19 20 20 20 20 19 19 19 20 20 21 21 21 21 21 21 21 21 21 21 21 21 22 22 22 23 23 23 23 24 24 23 23 23 23 22 21 22 22 22 21 22 23
9 9 10 10 8 7 7 6 7 8 8 9 9 8 7 6 6 6 7 9 8 7 7 8 8 7 7 8 7 7 7 6 7 7 8 8 8 8 9 10 18 21 20 20 20 20 19 20 19 18 18 19 20 20 20 20 20 20 20 21 21 20 22 22 22 22 22 23 23 23 24 24 23 23 22 22 22 22 24 24 22 22 23 23 23
9 9 9 10 10 9 8 7 7 8 9 11 12 9 8 7 7 6 6 7 9 9 7 8 9 8 7 7 7 7 6 7 7 7 8 8 8 8 8 8 8 17 20 19 20 20 20 20 19 18 18 17 18 18 18 18 18 19 20 20 20 20 21 21 21 22 22 22 22 23 23 23 23 23 23 23 23 24 24 23 24 25 24 24 25
10 8 7 8 9 9 10 8 8 10 10 10 10 8 8 9 8 7 7 8 8 8 9 9 7 7 7 6 6 6 6 7 7 7 6 7 6 6 6 6 7 6 8 19 21 20 20 19 18 18 18 18 17 18 18 18 19 19 19 19 20 20 20 21 21 21 21 21 22 22 22 22 23 23 24 24 25 25 24 25 26 25 26 26 25
8 9 9 9 9 9 9 8 9 10 9 8 10 9 9 10 8 8 6 6 6 7 9 9 9 8 7 6 6 6 6 7 6 7 7 6 6 6 6 6 6 6 6 6 12 20 19 18 18 18 18 18 17 17 18 18 18 17 18 19 19 19 20 20 20 21 21 21 21 22 22 23 23 24 25 25 25 25 25 25 25 24 23 24 24
11 10 9 9 9 9 8 9 10 10 9 8 9 11 9 8 7 9 10 7 7 8 8 10 8 8 6 7 6 6 6 6 7 7 6 6 7 7 6 6 6 7 7 7 7 10 19 18 18 17 18 18 18 18 17 17 16 17 17 17 18 19 19 19 20 20 21 21 22 23 23 23 24 24 24 23 24 23 22 22 23 23 22 22 23
10 10 10 10 9 9 9 11 10 11 11 9 8 9 10 9 8 6 8 9 8 9 9 9 9 8 6 7 6 6 6 6 6 6 6 7 7 6 7 7 7 8 7 7 7 6 11 16 16 17 17 18 18 18 18 16 16 16 16 16 17 18 18 19 19 21 20 21 21 22 22 22 23 22 22 23 22 22 22 23 23 24 23 23 23
10 9 9 9 10 11 11 11 11 10 10 10 9 8 8 10 10 7 8 9 8 9 10 9 8 8 7 7 6 6 6 6 6 6 6 7 7 7 6 6 7 7 7 7 6 6 6 9 14 15 17 17 18 18 17 16 15 15 15 15 16 17 18 19 19 20 20 20 20 21 20 20 21 21 22 22 22 22 22 23 22 22 23 22 23
10 10 9 9 9 10 12 12 11 11 11 11 10 9 9 9 11 10 6 5 8 8 10 10 9 8 8 7 6 6 5 5 6 6 6 5 6 6 5 6 7 7 7 6 5 5 5 5 6 6 9 18 16 16 15 15 14 14 15 15 16 17 17 18 19 19 18 18 19 19 19 19 20 21 22 22 22 22 23 23 23 22 23 23 23
8 9 10 10 10 10 11 11 10 11 12 12 11 11 12 11 11 12 11 7 5 8 10 12 10 10 8 8 7 6 6 5 5 4 4 5 6 5 7 6 7 6 6 5 5 5 6 6 6 6 6 11 15 13 14 14 14 14 14 15 15 16 17 18 18 17 17 17 18 18 19 19 21 21 22 22 22 22 22 22 22 22 22 23 24
8 9 9 9 10 11 11 10 10 11 12 13 11 11 10 11 11 10 14 12 7 6 8 11 13 8 7 7 7 5 5 5 5 5 4 5 4 6 6 6 6 6 5 5 5 5 5 6 6 6 6 5 7 11 12 13 13 13 14 15 15 16 16 17 17 16 17 16 17 18 18 19 20 21 21 21 21 22 22 22 23 23 24 24 25
8 9 10 10 10 10 11 12 11 9 7 9 10 10 10 9 11 10 7 12 9 9 10 11 4 8 10 5 5 5 4 5 4 4 4 5 4 5 5 6 6 5 5 5 5 5 5 5 5 5 5 5 5 4 5 5 7 13 14 15 16 16 16 16 16 15 16 16 17 17 18 19 19 20 21 21 22 22 23 23 23 24 24 24 24
8 9 10 10 11 11 10 10 11 10 10 10 11 11 11 11 12 13 10 3 5 5 9 0 9 5 6 9 4 3 0 2 3 3 4 4 4 5 5 5 5 4 5 4 4 4 4 4 5 5 4 4 4 3 4 5 6 11 13 15 16 16 15 15 14 15 15 16 16 17 18 18 19 20 21 21 22 22 22 22 23 23 23 24 24
9 9 9 10 12 12 10 10 11 11 12 13 13 13 12 11 10 10 11 12 7 7 5 3 10 14 4 2 4 5 3 3 2 0 2 3 4 3 4 5 5 4 4 5 4 4 4 4 5 4 3 3 3 3 3 3 5 8 11 12 15 14 14 13 14 14 15 16 16 17 18 19 19 20 21 21 21 22 22 22 22 23 23 24 24
9 9 8 10 10 11 12 12 12 12 12 13 14 14 14 13 12 12 13 14 12 6 7 4 9 1 11 7 3 0 5 4 6 1 1 3 1 3 4 4 5 4 5 4 4 4 4 4 4 3 3 3 2 1 1 1 2 3 6 8 12 11 11 12 13 13 14 15 16 17 18 19 19 19 20 21 21 22 22 23 23 23 23 23 25
7 9 9 8 11 12 12 13 13 12 11 11 11 11 12 13 13 12 10 8 14 11 7 5 9 5 2 2 7 7 8 6 6 4 0 0 2 2 3 4 4 4 4 4 4 4 4 4 3 3 2 2 1 0 0 0 2 4 5 6 11 10 10 11 12 13 14 15 16 17 18 18 18 19 20 21 21 22 22 22 23 23 24 24 25
7 8 9 10 10 11 11 12 12 12 10 9 10 12 12 12 10 10 10 9 8 11 11 11 6 5 2 0 2 3 11 13 5 5 3 1 0 1 1 4 4 4 4 4 4 4 3 3 3 3 1 0 0 0 1 2 6 8 10 10 8 8 9 10 11 12 14 15 16 16 17 18 18 19 20 21 21 21 22 22 23 25 25 25 25
6 7 9 10 10 11 11 11 11 11 11 11 12 10 9 8 10 9 8 10 12 12 10 10 14 7 4 3 3 5 9 2 7 10 7 8 4 1 0 2 4 4 4 4 4 4 4 3 3 2 1 0 0 0 1 3 3 4 4 9 7 7 7 9 10 11 12 13 15 16 16 17 18 19 20 21 21 21 22 22 23 24 25 25 25
5 7 9 9 10 11 11 11 11 11 10 9 10 11 13 13 11 9 10 9 9 8 10 12 8 6 7 3 5 6 3 2 5 4 5 5 1 5 4 0 0 1 3 4 4 4 4 4 3 3 2 0 0 1 2 2 2 2 5 8 7 6 7 8 9 10 11 12 13 14 15 16 17 19 19 20 20 21 22 23 24 25 25 25 24
5 5 8 9 10 10 11 12 12 11 10 10 10 11 11 12 13 12 11 11 7 7 10 8 8 6 6 7 5 4 3 3 2 4 4 3 8 9 7 8 6 4 2 3 4 4 4 4 4 4 3 2 0 1 1 1 0 0 3 8 7 6 6 7 9 10 11 11 12 13 14 15 17 18 19 20 20 21 22 24 24 24 25 25 26
5 5 6 8 9 10 11 11 11 11 11 9 10 12 11 12 11 10 10 11 8 7 4 5 7 7 6 8 9 11 10 7 9 5 5 3 4 4 4 5 4 4 5 4 4 3 4 3 4 3 3 3 1 0 0 0 1 2 5 7 7 6 6 7 8 10 10 11 12 12 13 14 15 17 18 19 20 22 23 23 24 24 25 25 25
4 5 5 7 9 9 9 9 10 10 11 10 10 11 11 10 10 10 10 9 6 7 7 7 7 7 6 7 8 7 4 6 8 9 9 7 8 8 8 3 1 1 1 2 1 3 4 4 4 4 4 3 2 1 1 0 1 2 3 6 7 7 7 8 8 10 10 10 11 12 12 13 14 16 18 19 21 22 23 23 24 24 24 25 25
6 7 6 7 8 10 10 10 10 10 11 10 10 11 10 11 11 10 9 10 10 9 8 9 10 9 8 5 6 7 7 4 7 7 4 7 9 7 3 4 5 3 1 3 2 2 4 5 5 4 4 3 3 2 2 1 0 3 3 4 6 7 8 8 8 9 10 9 10 11 12 13 15 16 18 19 21 22 23 23 24 24 25 25 25
11 11 10 10 8 8 9 9 9 9 10 11 11 11 11 11 10 10 9 9 8 9 9 8 8 7 6 7 6 7 5 6 7 7 8 8 7 10 8 2 2 4 1 3 1 2 3 4 4 4 4 4 3 3 3 2 1 3 1 2 5 7 8 8 8 9 9 9 10 11 12 13 15 17 18 19 20 21 22 23 24 24 25 25 26
9 9 8 9 9 7 8 9 9 9 9 10 9 9 10 9 9 9 8 7 9 9 8 9 8 8 6 8 7 6 6 6 7 7 8 9 10 9 11 9 2 2 3 3 2 5 3 2 5 4 5 4 4 3 3 3 3 3 1 1 2 6 7 8 8 9 8 9 10 11 13 14 16 16 17 18 19 20 22 23 24 24 25 25 25
7 7 8 8 8 9 8 8 8 8 8 9 10 9 9 9 8 8 8 5 9 9 8 9 9 9 8 6 7 6 4 6 5 7 7 8 8 9 10 10 10 4 2 3 4 6 4 4 3 5 5 5 4 4 4 4 2 5 1 1 2 3 6 8 9 8 9 10 11 12 13 14 15 16 16 18 19 20 21 22 23 23 24 25 25
7 7 9 8 8 8 8 8 8 8 8 8 9 8 9 9 9 8 9 6 8 10 8 9 8 9 8 8 8 7 5 4 5 6 6 6 8 9 9 10 8 8 6 6 7 7 4 5 5 6 6 5 5 4 4 3 4 4 3 2 2 2 6 8 9 9 10 10 11 12 13 14 15 16 16 17 19 20 21 22 23 23 24 25 25
8 7 8 9 8 7 7 6 6 7 8 7 7 8 8 8 8 9 8 8 8 7 8 9 9 8 7 6 7 7 5 6 7 6 7 8 8 8 7 6 8 8 7 8 7 6 4 4 4 4 4 6 5 4 4 4 6 5 4 3 3 3 7 7 9 10 10 10 11 12 13 14 15 16 17 17 18 20 21 22 23 23 24 24 25
8 8 8 7 7 7 7 7 7 7 6 7 7 8 8 9 8 8 7 9 10 9 7 9 8 9 9 9 6 7 6 7 6 6 5 7 7 7 6 7 6 7 8 5 4 4 4 6 6 3 6 7 5 4 3 4 6 5 4 4 4 7 7 5 8 9 10 10 10 12 13 14 15 16 18 18 19 20 21 22 23 23 24 24 25
8 9 9 9 9 9 8 8 8 8 8 7 8 9 9 9 9 9 9 9 10 10 8 7 8 8 10 10 9 8 7 6 7 6 6 4 6 7 6 6 5 5 7 5 5 5 3 6 5 4 5 7 5 5 5 4 5 8 4 4 4 7 4 3 6 8 9 10 10 11 13 14 15 16 17 19 19 20 21 22 23 23 24 24 24
8 9 10 10 10 10 10 10 10 10 10 9 8 9 9 9 8 9 10 10 11 9 9 9 7 9 10 10 9 8 8 9 7 7 6 6 5 5 5 6 6 5 6 5 6 3 1 1 4 5 4 4 4 5 5 5 4 4 4 4 4 3 3 4 3 6 9 10 10 11 12 14 15 16 17 18 18 20 21 22 23 23 23 23 23
10 11 11 10 9 9 10 10 10 10 10 11 10 9 10 10 9 8 10 11 11 10 10 11 9 8 9 11 9 9 7 9 8 8 7 7 7 6 5 6 6 5 3 5 4 6 6 1 2 1 3 4 4 3 7 4 5 3 4 3 3 3 3 3 3 4 9 10 10 11 12 14 15 17 17 17 17 19 21 22 22 22 22 23 23
8 10 11 10 10 10 10 10 10 10 10 10 9 10 11 12 12 10 10 11 12 12 12 12 12 9 9 10 10 9 6 7 7 7 6 7 6 7 6 4 6 5 4 3 5 5 6 5 4 4 5 4 6 4 5 5 4 4 3 3 4 3 2 3 4 3 8 10 10 11 12 14 15 16 16 16 17 19 21 22 22 21 21 22 22
10 8 9 10 9 10 10 10 10 10 10 9 10 11 12 13 13 13 11 11 11 13 13 13 12 12 12 11 10 10 9 9 8 7 6 5 6 6 6 4 5 6 4 3 2 4 4 6 3 6 4 5 4 3 5 3 4 3 4 3 2 3 3 3 3 3 6 8 9 11 12 14 15 15 15 16 17 19 21 22 21 21 21 21 22
9 8 8 8 9 10 10 11 11 12 12 12 12 11 10 11 12 13 13 12 11 12 12 13 13 13 12 12 12 10 10 10 8 8 7 7 6 6 6 5 5 5 4 4 4 3 4 6 3 2 3 2 3 3 3 4 3 2 2 3 3 3 3 3 3 3 4 6 7 9 12 13 14 14 15 15 17 20 21 21 20 20 20 21 22
9 9 10 9 10 11 11 11 12 13 13 12 13 13 13 12 11 11 12 12 12 12 11 11 12 11 12 11 12 12 12 13 11 9 8 9 7 7 7 6 5 5 5 4 4 4 4 4 5 4 2 4 2 3 3 4 4 2 2 2 2 2 2 2 2 2 1 1 2 3 5 7 9 13 14 16 19 21 20 20 19 19 20 21 22
10 10 9 11 10 11 12 11 11 12 12 12 12 12 12 12 13 12 11 10 9 9 9 10 10 10 10 11 12 13 13 11 11 11 10 9 8 8 8 7 6 6 6 5 4 4 4 4 3 4 4 3 3 4 3 3 3 3 3 2 4 3 2 2 3 1 0 3 5 7 5 7 10 9 14 17 19 20 19 18 18 19 20 22 23
10 11 12 12 11 11 12 12 12 11 12 12 12 12 11 12 12 12 12 12 10 8 8 9 10 11 11 10 11 11 11 10 11 11 11 11 8 8 6 6 6 7 6 5 5 5 5 5 6 5 4 4 3 2 1 1 0 3 3 4 5 3 4 1 1 2 2 2 3 2 3 5 6 10 13 14 16 18 17 15 17 18 20 22 22
9 10 10 11 11 11 10 11 11 10 11 12 11 12 12 12 11 12 12 12 12 12 11 10 9 9 8 8 9 9 10 11 13 12 9 8 10 8 6 7 7 7 5 4 5 5 4 4 4 3 4 5 6 4 5 4 5 6 2 2 4 2 1 2 3 3 3 1 3 1 2 3 7 7 5 6 7 10 11 15 13 17 20 21 23
10 10 10 10 11 12 12 12 11 10 11 9 13 19 16 14 14 11 12 13 13 13 12 11 10 9 9 9 8 12 12 13 13 12 12 11 8 8 10 9 8 7 7 6 6 6 5 6 7 5 5 7 7 6 5 4 3 1 2 3 4 2 1 4 3 4 2 1 3 5 3 2 6 8 6 6 6 7 6 6 7 12 17 23 24
11 11 10 12 12 11 13 13 14 12 11 10 17 17 18 13 11 11 12 11 10 11 12 13 13 11 9 8 8 10 11 10 10 13 13 13 11 9 11 11 10 11 9 8 7 6 7 7 5 4 6 7 7 4 6 4 2 4 5 4 5 2 3 3 6 2 1 3 3 5 6 1 4 7 6 6 6 6 5 6 14 19 22 23 23
11 9 11 14 13 12 12 13 13 13 12 14 15 14 15 17 13 11 10 11 11 11 11 12 11 10 10 9 8 8 8 8 8 9 11 12 12 11 12 12 13 12 11 11 8 7 7 6 6 7 5 7 4 5 5 3 5 4 4 4 4 4 5 4 3 4 2 2 4 7 10 1 3 6 6 6 6 5 5 11 17 20 22 22 21
10 12 13 12 13 13 13 14 14 13 11 15 16 20 19 19 19 14 10 11 11 12 11 11 11 11 10 10 8 7 7 11 8 7 8 8 11 13 12 13 12 14 14 14 11 8 7 7 8 7 8 5 5 6 5 4 3 5 3 3 4 5 5 4 4 2 2 2 4 7 10 5 3 6 6 5 4 4 5 9 16 21 22 21 19
12 12 12 14 13 13 13 13 13 12 12 17 20 24 23 23 19 16 11 12 11 12 12 12 11 11 11 11 10 9 7 8 7 8 7 8 7 7 7 7 7 9 13 15 15 12 9 8 8 9 7 6 7 3 4 4 4 5 4 5 4 4 4 6 3 2 2 1 2 5 8 5 1 6 8 6 4 4 4 10 18 21 20 18 15
13 13 14 13 13 12 13 12 12 12 11 19 23 25 25 21 21 16 10 9 8 8 9 11 12 12 12 11 11 11 10 9 9 11 10 9 7 7 7 7 7 7 7 8 8 7 7 7 7 8 4 5 5 4 4 5 5 5 5 6 6 5 2 0 1 1 2 2 3 2 6 8 4 7 9 6 4 5 4 9 16 19 17 13 13
9 9 10 10 12 12 12 13 12 12 11 18 21 23 24 20 22 13 10 12 11 11 11 10 10 10 10 11 11 11 12 11 12 17 12 9 8 8 9 7 6 6 6 6 7 6 7 6 6 6 5 5 6 5 5 5 4 4 3 1 2 2 1 2 5 1 3 4 4 4 4 6 5 6 11 6 5 7 6 5 13 16 12 10 17
11 11 12 12 10 11 11 11 12 11 10 16 20 22 21 19 18 11 10 9 9 10 11 12 12 11 11 11 11 11 11 11 14 18 16 13 8 10 9 9 7 5 7 6 10 14 14 12 11 11 10 11 12 13 14 14 10 7 4 4 5 4 3 6 6 2 4 3 3 5 3 6 4 3 9 9 5 8 7 6 5 9 7 12 19
11 11 9 8 8 9 10 11 12 11 10 14 21 22 23 22 17 12 10 10 8 8 6 6 5 6 9 13 12 11 11 10 15 18 19 14 10 10 9 8 7 8 8 6 5 7 13 15 15 15 15 14 15 16 16 15 15 8 9 8 4 5 5 5 6 4 2 2 5 2 2 5 3 2 6 10 8 3 4 4 3 1 7 12 15
9 7 7 7 7 7 8 10 11 11 8 8 15 19 20 20 15 8 8 7 9 9 9 8 7 7 7 9 11 9 9 11 18 18 20 15 10 10 10 8 9 9 10 7 7 6 5 3 4 3 4 5 3 2 3 7 9 3 8 5 4 6 6 5 6 3 5 2 4 3 1 3 2 5 2 6 8 5 3 1 0 2 6 5 7
Wind_Direction
154 157 155 149 151 157 133 112 108 110 107 99 104 110 107 107 106 101 89 84 81 79 84 80 79 77 82 83 79 76 71 67 59 50 44 40 36 32 49 59 67 72 80 80 81 80 80 76 75 73 73 72 70 67 61 61 62 60 55 52 50 50 48 47 46 45 44 41 39 38 36 35 33 31 29 28 27 24 21 20 20 20 14 13 12
158 160 159 153 152 151 125 128 127 123 112 108 99 97 109 106 98 103 103 93 84 78 86 83 74 72 75 82 76 74 73 70 62 55 54 48 41 37 36 61 65 67 73 76 77 77 77 78 77 74 73 70 69 69 66 59 58 59 56 54 51 50 50 47 46 46 44 42 39 38 36 34 32 30 28 26 23 23 20 20 19 16 14 12 12
161 161 156 151 151 138 129 129 118 118 113 110 110 106 96 103 115 120 113 107 96 93 90 89 85 75 75 77 73 72 70 67 69 64 60 52 52 48 38 46 71 75 76 76 76 77 73 69 73 75 73 71 69 67 67 64 59 57 56 54 52 50 49 47 45 44 42 40 38 37 34 33 32 30 27 24 23 21 19 18 17 15 13 11 10
166 163 157 152 147 135 132 124 119 121 117 115 109 111 111 105 100 96 101 106 108 99 91 92 87 82 78 79 77 75 70 71 73 69 67 65 60 57 51 39 55 70 71 78 78 76 71 68 67 69 72 71 69 66 64 64 60 57 55 53 51 50 48 46 44 43 41 39 38 35 33 33 31 29 26 24 23 18 18 18 16 10 11 11 11
170 164 157 151 143 137 127 125 127 122 118 124 118 118 118 115 100 99 91 93 100 98 96 91 91 85 79 75 81 80 76 78 76 73 74 71 68 64 60 53 49 56 58 67 73 70 71 70 69 67 64 67 68 65 63 60 58 57 53 51 49 47 46 45 44 43 41 39 37 35 33 32 30 28 25 22 20 19 18 14 11 12 11 9 7
161 153 151 138 138 135 132 130 131 126 125 125 126 131 123 113 114 102 102 112 110 110 107 97 89 86 79 75 78 82 85 78 77 76 75 72 69 67 64 57 52 47 45 59 60 66 70 73 71 68 62 60 60 63 59 56 55 55 53 51 50 48 46 44 44 42 41 40 36 34 31 30 28 27 24 21 19 18 14 12 12 10 8 5 5
158 151 146 141 136 132 133 136 135 132 132 138 130 129 125 126 134 123 119 107 109 109 107 104 102 91 90 87 82 86 80 85 78 76 73 79 77 74 70 65 60 58 50 40 52 62 69 69 67 67 66 62 59 57 59 58 55 53 52 51 49 47 45 45 43 41 39 37 34 33 29 28 26 24 22 20 18 15 11 12 10 7 6 5 4
156 150 149 151 145 140 139 139 137 130 128 135 138 135 139 133 139 138 128 125 121 111 103 102 100 95 90 91 87 82 88 81 80 77 73 75 71 69 67 66 62 64 58 51 43 51 64 65 70 69 67 63 60 55 55 56 54 51 51 52 50 47 45 42 40 39 37 34 31 29 28 27 24 23 21 18 15 16 11 7 9 7 6 3 2
157 157 152 151 144 140 143 144 142 138 139 145 147 143 141 137 136 135 125 130 124 115 105 102 99 94 90 86 82 86 81 84 81 81 77 72 70 67 66 60 63 61 57 58 51 38 47 60 63 66 65 63 59 53 53 51 50 50 48 48 48 48 43 41 36 36 33 31 30 28 27 25 24 22 19 18 15 13 10 7 10 6 4 2 2
156 156 151 150 145 144 145 148 145 141 142 146 150 151 142 140 134 132 130 133 128 123 114 105 99 95 85 80 81 80 82 84 81 78 78 79 72 73 72 73 69 63 63 62 58 55 47 44 46 46 56 58 55 50 54 52 48 46 45 44 48 45 41 40 35 35 32 30 28 29 27 22 23 20 18 16 15 11 10 9 7 3 3 4 1
156 154 148 146 144 146 150 153 149 146 145 150 155 151 147 142 136 128 116 113 130 123 118 111 99 90 85 76 78 74 75 73 77 83 82 87 89 85 82 71 74 69 68 62 60 58 56 53 46 39 39 53 54 52 49 50 48 45 42 41 44 45 41 40 35 33 31 29 24 29 25 19 22 17 17 15 13 10 9 7 6 4 4 1 359
156 154 150 149 147 149 148 149 151 150 152 155 158 158 154 145 139 133 125 110 107 124 122 111 96 88 83 74 66 70 64 69 72 78 85 88 95 93 87 82 75 75 69 66 62 58 57 51 51 48 43 42 49 50 48 46 43 44 43 40 39 45 42 37 36 31 29 28 21 24 24 18 16 15 14 13 12 8 8 6 4 2 1 359 358
153 150 150 149 150 150 149 152 155 159 159 160 159 154 149 145 137 137 136 133 131 136 128 120 114 84 71 72 62 52 66 69 70 72 78 92 88 95 93 89 85 80 77 71 64 61 57 56 53 53 51 50 36 36 39 33 33 43 42 39 38 38 42 37 33 29 27 25 23 20 21 17 14 13 10 10 8 7 6 5 2 0 359 357 356
158 154 152 151 149 151 155 154 155 157 150 145 142 135 135 146 143 130 145 141 143 160 155 127 77 135 131 109 62 49 59 60 63 59 77 71 79 88 94 98 101 98 88 76 70 66 62 59 59 57 55 53 48 37 16 13 17 41 42 40 36 34 36 34 30 27 25 23 19 20 18 15 11 9 8 7 6 5 5 2 360 358 358 356 354
161 159 156 158 156 154 156 153 153 149 145 145 143 147 151 164 161 148 143 132 128 177 176 112 127 112 108 98 145 84 21 38 33 55 72 75 81 85 100 109 116 116 111 96 88 81 74 66 65 60 54 56 52 40 26 12 13 27 33 37 35 29 27 31 27 24 22 24 18 15 16 14 10 7 7 6 3 2 2 358 358 356 355 353 352
162 163 163 161 158 156 151 155 155 159 154 153 162 162 160 165 163 157 148 141 160 192 221 196 145 139 129 148 175 121 118 244 141 46 70 81 105 113 113 121 125 119 110 111 115 106 88 78 70 65 59 62 60 51 42 20 12 7 7 25 38 31 20 24 24 22 19 21 20 13 13 12 9 5 3 4 0 358 357 356 354 353 353 352 349
166 164 163 161 158 155 157 159 158 164 166 166 169 171 169 168 163 159 172 156 162 166 205 192 190 240 132 122 80 218 208 154 124 56 87 90 110 143 135 133 128 127 122 128 121 117 109 87 80 69 68 58 50 54 61 46 13 351 1 8 36 32 21 16 21 19 18 20 17 12 12 11 7 3 1 360 358 355 354 353 350 351 351 350 348
170 166 161 163 162 162 162 162 166 169 177 174 165 159 164 168 174 168 169 179 159 158 167 216 203 196 221 105 156 172 156 167 115 179 280 250 169 125 142 148 139 133 133 134 118 117 115 110 100 89 69 45 32 354 227 124 50 17 5 356 34 27 20 15 14 14 16 17 15 11 9 8 4 0 359 358 355 354 352 350 348 347 349 351 349
170 171 164 168 164 162 165 167 168 172 172 168 170 172 172 172 164 171 174 164 160 161 169 176 202 261 228 205 134 119 140 145 187 102 144 254 228 144 142 146 143 129 139 140 131 109 112 125 122 111 74 2 306 278 70 40 41 31 16 16 27 25 18 15 12 12 12 11 10 7 4 5 1 358 357 355 353 351 351 348 349 348 347 349 349
169 171 170 168 166 165 167 169 173 176 172 176 174 169 165 165 172 169 169 177 175 167 169 173 182 195 149 123 81 113 152 56 144 162 150 159 212 288 232 162 139 157 152 151 146 139 129 123 138 140 163 269 269 354 65 67 62 28 348 7 13 18 18 11 13 13 13 10 8 2 1 0 358 356 355 352 350 348 348 347 347 346 345 347 347
180 171 174 174 170 170 170 171 175 176 178 175 172 169 169 166 168 166 181 188 189 176 165 183 183 166 137 84 104 136 125 71 116 90 136 126 151 181 183 317 79 227 175 156 164 155 156 162 157 168 172 218 327 42 41 75 78 32 0 2 360 5 11 9 11 10 13 10 5 360 357 356 354 352 350 348 347 346 346 346 347 345 343 341 343
187 176 173 177 174 172 174 176 178 175 177 177 170 168 170 173 175 177 181 186 187 177 182 175 171 157 161 144 130 131 96 104 132 99 65 97 162 191 185 170 184 233 191 163 163 171 169 168 155 162 179 191 270 62 41 56 214 184 350 357 353 353 357 9 7 6 8 7 4 357 355 354 350 347 346 345 345 345 346 347 345 341 341 340 342
186 186 181 175 177 178 180 182 180 173 174 171 176 174 174 176 178 178 184 185 182 171 155 159 156 158 160 160 161 169 172 170 182 186 144 141 82 136 156 189 177 156 222 193 170 186 182 175 165 180 179 195 204 124 90 317 250 310 13 352 350 346 355 1 2 0 3 3 360 355 353 351 345 343 343 343 344 346 345 344 341 340 340 339 340
201 186 185 179 174 181 185 181 179 174 178 177 178 180 174 174 176 180 185 186 169 165 161 160 169 172 179 172 174 183 171 166 178 168 161 168 152 162 162 141 87 227 249 156 221 181 193 188 195 183 191 190 212 191 214 158 295 319 66 350 345 352 353 353 354 354 357 357 355 350 348 344 340 341 343 346 346 345 342 341 340 338 338 338 338
201 195 198 188 179 175 178 181 183 184 178 174 179 178 174 174 178 180 177 177 179 173 170 177 172 176 186 185 170 178 199 187 151 158 129 129 133 127 167 142 149 161 179 134 202 235 205 201 191 202 185 200 200 200 196 181 234 276 64 344 350 350 349 342 343 346 350 351 350 346 344 341 340 344 347 347 344 342 340 340 338 336 337 337 337
187 194 192 189 188 186 180 181 183 180 175 177 176 178 175 177 175 175 178 179 167 173 174 171 173 172 154 155 175 179 187 170 160 140 145 131 138 148 148 133 105 159 155 180 217 146 250 218 209 195 202 195 204 199 189 211 238 259 20 24 347 340 336 333 335 338 345 347 347 345 343 343 343 346 346 344 341 340 339 338 336 335 336 335 336
195 195 183 189 187 177 179 176 175 178 175 172 173 173 175 168 171 169 162 163 166 161 161 157 157 158 162 160 159 163 165 172 156 161 154 157 151 153 146 139 93 110 164 196 226 219 217 228 190 209 201 203 203 198 199 222 233 228 118 35 293 313 329 328 330 339 346 348 348 346 346 344 344 342 341 340 340 339 338 336 335 335 335 335 335
191 181 194 188 184 179 177 180 174 172 174 172 168 168 167 162 156 154 157 161 152 156 159 154 157 159 153 147 140 161 161 153 149 152 159 155 149 155 153 153 148 179 164 188 208 245 180 173 221 211 205 202 211 189 207 199 220 211 210 217 258 287 310 321 332 342 348 350 349 348 345 342 339 336 336 337 338 337 335 334 333 333 333 333 334
185 190 187 191 183 182 178 173 172 170 169 171 167 164 160 158 158 156 154 161 149 156 153 154 158 152 148 158 152 151 156 139 126 135 141 143 155 159 159 160 162 141 167 195 222 215 225 189 171 225 192 201 205 211 200 212 224 213 200 214 242 263 284 317 335 343 346 347 349 347 342 337 334 333 334 335 336 334 333 333 333 333 333 333 333
179 184 184 188 186 179 174 172 171 167 169 164 162 158 155 158 160 161 158 153 146 146 159 151 155 149 142 136 144 143 158 140 142 144 145 148 149 158 162 156 153 155 164 172 223 196 208 202 183 180 189 202 198 204 198 221 232 219 201 219 239 248 278 315 328 337 339 342 344 340 335 332 331 331 332 333 333 333 333 333 332 332 332 332 332
168 171 179 185 180 179 173 170 167 168 161 162 158 158 160 155 160 155 161 156 152 158 164 155 156 147 148 145 149 146 157 143 136 135 135 138 143 139 142 141 163 149 155 145 148 241 155 190 215 188 175 196 189 197 219 226 235 220 205 218 235 247 269 296 308 324 332 334 331 329 328 328 328 330 330 329 330 332 333 333 331 332 331 331 331
177 173 177 185 184 178 177 171 170 166 165 168 168 166 164 166 162 160 169 161 157 160 162 162 154 154 149 152 161 157 159 141 141 143 141 138 139 139 146 143 141 148 140 139 158 187 193 183 185 189 178 178 184 189 223 234 234 228 212 217 231 238 264 261 284 308 320 319 319 321 323 325 328 328 328 327 328 327 329 329 329 331 331 329 329
170 176 181 184 185 184 176 175 174 172 170 171 176 167 167 166 170 166 165 167 161 163 156 157 160 156 157 156 163 166 160 150 151 144 140 144 134 130 140 136 135 147 140 141 163 186 261 140 148 180 184 152 189 201 217 222 237 243 221 217 223 232 246 257 272 290 301 307 309 313 319 324 326 328 328 326 323 323 325 327 329 330 329 327 328
176 180 184 184 182 180 180 180 179 177 175 174 172 169 169 169 172 172 170 169 165 161 162 161 164 164 158 156 164 167 170 152 150 153 154 150 149 144 156 150 151 155 155 131 170 161 192 157 174 98 167 176 196 190 196 210 237 223 228 239 241 226 242 261 268 270 283 295 303 312 321 323 325 326 325 323 322 322 323 325 327 327 326 325 326
186 184 183 180 181 180 183 183 180 180 178 175 175 174 176 174 174 178 178 173 168 166 170 169 167 160 160 164 167 163 157 148 156 154 154 156 153 152 155 155 153 156 149 129 132 182 180 210 177 169 193 199 200 207 207 212 211 194 210 235 237 244 239 241 257 268 273 288 305 319 323 323 322 322 321 322 321 322 321 321 324 324 325 324 324
184 188 179 178 178 182 184 183 183 180 179 180 181 184 179 178 178 177 178 179 176 175 171 168 166 167 169 164 169 165 158 150 155 156 160 152 156 154 153 161 153 156 158 140 148 153 180 179 223 184 199 181 229 226 202 213 200 217 207 235 227 225 245 262 257 258 271 288 315 324 323 320 319 319 319 317 319 321 320 319 321 322 323 324 325
185 176 179 176 179 181 186 186 185 185 186 183 184 187 186 183 180 177 179 179 179 179 176 172 170 170 170 172 167 163 160 153 160 163 165 162 165 157 164 166 159 149 145 158 155 129 149 187 210 235 182 212 209 207 203 207 254 229 220 210 227 231 263 266 256 260 267 319 328 323 320 320 320 316 313 315 317 318 318 317 320 322 323 323 323
184 185 180 181 183 187 190 190 189 190 186 186 188 188 185 182 181 181 179 179 179 179 177 173 170 171 172 171 168 167 166 166 170 165 163 166 163 168 170 168 154 145 156 163 160 162 169 192 173 233 223 201 254 230 210 195 212 262 270 266 272 249 228 281 274 253 280 297 302 303 317 320 317 318 318 315 315 316 316 316 318 321 321 320 320
188 186 186 184 190 189 193 187 192 191 189 188 190 190 188 184 179 176 178 179 176 176 174 171 171 172 175 174 174 174 172 169 161 166 166 169 172 178 178 164 153 151 164 175 171 180 188 189 214 211 231 257 200 239 265 193 203 196 229 280 281 260 207 204 277 283 242 302 307 324 337 336 326 322 315 314 314 313 313 314 317 317 318 317 316
195 192 188 190 191 193 194 191 193 191 190 190 191 190 188 185 179 178 175 173 171 170 169 174 176 178 180 180 177 174 171 167 166 165 167 170 168 172 169 151 153 160 172 170 177 186 194 203 211 218 226 234 271 241 195 129 283 292 212 205 243 250 257 277 235 264 270 272 291 3 349 331 316 309 307 306 306 305 306 310 311 312 313 311 312
196 197 193 190 189 195 195 193 191 191 193 196 193 186 183 186 184 176 172 171 172 172 175 175 176 175 176 179 179 174 171 168 169 169 167 157 160 164 166 160 163 171 169 175 186 189 202 199 228 213 216 240 242 221 249 230 218 230 228 187 249 239 215 267 280 272 261 292 305 350 318 320 305 298 295 293 288 294 294 300 304 305 303 307 315
196 194 192 191 194 195 193 196 194 192 199 198 196 191 185 181 179 178 177 178 176 173 170 170 174 176 177 177 179 173 166 167 169 168 160 162 168 163 164 169 172 172 179 182 192 199 191 200 221 202 218 237 233 220 222 232 202 206 197 223 248 262 342 281 246 234 215 28 321 304 273 271 289 292 291 283 283 289 283 288 287 297 308 314 315
199 195 189 193 199 196 196 195 196 198 198 199 193 189 187 180 177 180 177 174 174 173 175 174 173 172 173 174 169 168 165 166 168 164 162 167 170 156 164 176 176 175 176 188 204 189 194 211 207 195 218 237 238 200 224 221 210 204 230 223 241 275 268 297 299 306 120 95 320 305 302 266 274 283 285 277 281 277 277 278 296 308 313 313 315
200 188 195 201 199 197 199 199 201 201 200 196 187 175 174 180 178 177 176 175 177 178 178 177 173 168 167 166 168 166 169 166 160 165 167 168 169 171 175 185 193 195 189 181 184 190 201 203 211 219 202 232 225 197 224 185 224 236 228 204 206 217 247 247 255 278 255 55 341 310 297 300 231 266 281 275 274 267 273 295 306 310 311 313 317
188 194 202 200 204 201 200 201 203 200 201 186 173 182 181 175 178 175 180 175 175 178 176 175 172 170 166 161 158 160 156 152 148 149 154 168 176 181 186 192 198 201 205 208 201 191 181 200 214 222 209 212 209 225 195 195 173 209 219 227 221 219 219 232 235 238 295 45 346 300 293 313 293 287 285 277 256 270 284 299 302 306 310 313 315
196 199 200 204 204 204 203 203 203 201 199 187 184 190 187 184 175 171 179 178 180 178 176 173 172 170 169 165 159 155 151 150 152 148 157 162 164 173 187 193 199 207 212 215 217 203 189 201 205 221 222 172 218 194 198 181 174 212 207 234 214 229 228 234 219 217 233 85 294 296 292 306 274 301 293 292 276 271 274 293 303 306 308 312 315
199 199 201 203 206 205 204 203 204 203 203 196 194 191 192 184 173 171 175 167 171 171 176 175 174 175 173 167 159 154 156 165 166 167 167 170 168 180 188 199 201 204 207 215 213 205 201 211 213 225 214 197 216 196 190 206 203 208 197 210 209 217 216 49 31 208 261 238 204 252 272 303 335 312 294 299 290 276 275 293 298 300 306 309 319
211 206 209 206 206 206 204 202 202 206 204 199 198 197 192 181 172 174 171 173 176 180 176 174 169 171 170 164 159 164 170 171 175 176 172 164 173 185 198 208 212 213 223 225 226 220 212 209 208 215 207 203 209 198 198 204 221 218 203 125 102 114 138 282 261 224 238 265 204 197 274 289 306 302 294 304 300 290 286 275 288 297 301 310 326
207 207 208 206 205 204 204 203 203 207 206 197 196 198 197 179 170 181 177 180 176 173 172 174 178 173 171 171 167 162 165 175 180 181 178 167 177 190 201 209 211 214 232 227 230 232 232 228 222 221 223 225 235 237 237 236 229 200 159 168 211 160 213 256 267 202 252 188 258 214 246 286 294 295 296 295 298 293 290 273 271 288 289 323 324
211 212 210 209 207 207 205 207 204 206 208 202 197 194 193 188 180 177 171 173 171 162 157 158 152 163 171 169 169 167 167 172 178 183 184 175 183 192 196 202 206 218 233 217 218 231 235 236 236 236 236 237 236 239 240 245 254 216 162 210 205 159 221 232 259 261 245 202 246 182 139 243 279 277 297 300 302 238 257 256 227 261 328 317 314
212 203 202 206 206 206 207 207 208 209 208 204 205 202 194 188 176 161 163 155 165 172 164 162 157 160 168 176 174 163 165 171 181 187 189 182 185 188 191 190 208 218 225 197 202 209 217 226 254 247 269 279 301 321 318 300 288 212 181 197 159 169 217 229 244 285 310 274 245 158 235 271 344 292 298 331 314 286 188 160 79 328 300 299 300